Find Starlink 32710

NORAD ID: 62604 Int'l Des: 2025-008 Owner: SPXS Country: US Constellation: starlink operational
LEOCIRCULAR

当前视图

正在加载3D地球...

About Starlink 32710

Starlink 32710 (NORAD 62604) is a starlink constellation satellite (v2 mini) launched Jan 13, 2025 by SPXS of US. It operates in LEO, CIRCULAR orbit with a mass of 730.00 kg.

关于 Starlink 32710

正在加载描述...

即将过境

Passes for default location (London). Set your location on the main map for personalized predictions.

高度历史

Loading altitude history...

两行轨道根数

1 62604U 25008T 26170.40079250 .00016625 00000-0 61203-3 0 9991
2 62604 42.9990 63.1772 0001072 269.3312 90.7417 15.27595143 81127
Epoch: Jun 19, 2026 • Age: 14 hours

当前状态

高度 492.8 km
速度 7.62 km/s
星下点 -36.30°S, 107.93°E
发射日期 Jan 13, 2025
运行时间 1.4 years
类型 internet

技术详情

分类 Payload
质量 730.00 kg
干质量 700.00 kg
总质量 730.00 kg
长度 0.30 m
直径 4.10 m
跨度 29.00 m
形状 Box + pan
制造商 SPXS
平台类型 Starlink V2M
阶段状态 In Orbit
所有者/国家 SPXS/US

Most Searched